Regional Weather Roundup
Issued by NWS

Home | Current Version | Previous Version | Text Only | Print | Product List | Glossary Off
Versions: 1 2 3 4 5 6 7 8 9 10 11 12 13 14 15 16 17 18 19 20 21 22 23 24 25 26 27 28 29 30 31 32 33 34 35 36 37 38 39 40 41 42 43 44 45 46 47 48 49 50

000
ASUS45 KBOI 261210
RWRID
WEATHER ROUNDUP FOR IDAHO
NATIONAL WEATHER SERVICE BOISE ID
500 AM MST WED NOV 26 2014

NOTE: "FAIR" INDICATES FEW OR NO CLOUDS BELOW 12000 FEET
WITH NO SIGNIFICANT WEATHER AND/OR OBSTRUCTIONS TO VISIBILITY

IDZ012-014-261300-
SOUTHWEST IDAHO


CITY           SKY/WX    TMP DP  RH WIND       PRES   REMARKS
BOISE          MOCLDY    40  36  86 E3        30.30S
CALDWELL       NOT AVBL
MOUNTAIN HOME  MOCLDY    42  42  99 W5        30.30S
$$

IDZ016-017-261300-
SOUTHCENTRAL IDAHO


CITY           SKY/WX    TMP DP  RH WIND       PRES   REMARKS
BURLEY         PTCLDY    44  33  65 W12       30.29R
JEROME         PTCLDY    40  32  73 SW13      30.30S WCI  32
TWIN FALLS     PTCLDY    44  32  62 S14       30.31R
$$

IDZ019>023-261300-
SOUTHEAST IDAHO


CITY           SKY/WX    TMP DP  RH WIND       PRES   REMARKS
IDAHO FALLS    MOCLDY    41  36  82 S24G36    30.21R
POCATELLO      CLEAR     44  37  76 SW18G26   30.28R
REXBURG        MOCLDY    39  35  86 SW16G28   30.17R WCI  30
$$

IDZ006-010-011-018-031-032-261300-
CENTRAL IDAHO MOUNTAINS


CITY           SKY/WX    TMP DP  RH WIND       PRES   REMARKS
MCCALL         CLOUDY    35  34  96 CALM      30.27R FOG
HAILEY         PTCLDY    32  30  93 CALM      30.26R
STANLEY          N/A     35  31  85 CALM      30.28F
SALMON         CLOUDY    34  30  86 CALM      30.17R VSB 1/4
CHALLIS        MOCLDY    43  32  65 CALM      30.18R
$$

IDZ002-004-006-007-026-261300-
NORTHERN IDAHO


CITY           SKY/WX    TMP DP  RH WIND       PRES   REMARKS
LEWISTON       CLOUDY    42  40  92 N3        30.18F
LOWELL           N/A     37  36  96 CALM      30.23S
COEUR D`ALENE  CLOUDY    34  30  86 NE5       30.15F WCI  30
MULLAN PASS    FRZ RAIN  33  31  92 VRB7G18   30.06F VSB 1/2 WCI  27
$$


USA.gov is the U.S. government's official web portal to all federal, state and local government web resources and services.